Hourly Weather Roundup
Issued by NWS Central Illinois

Home | Current Version | Previous Version | Text Only | Print | Product List | Glossary On
Versions: 1 2 3 4 5 6 7 8 9 10 11 12 13 14 15 16 17 18 19 20 21 22 23 24 25 26 27 28 29 30 31 32 33 34 35 36 37 38 39 40 41 42 43 44 45 46 47 48 49 50
000
NZUS43 KILX 280610
HWRILX

AREA WEATHER ROUNDUP
NATIONAL WEATHER SERVICE, LINCOLN IL
1200 AM CST FRI NOV 28 2014


CITY           SKY/WX    TMP DP  RH WIND       PRES   REMARKS
BLOOMINGTON    MOCLDY    14  11  88 SW6       30.41R WCI   5
6HR MIN TEMP:  12; 6HR MAX TEMP:  21; 6HR PCP: TRACE;

CHAMPAIGN      CLEAR     13   9  84 W7        30.41R WCI   3
6HR MIN TEMP:  11; 6HR MAX TEMP:  23;

DECATUR        PTCLDY    17   8  67 N3        30.42S
6HR MIN TEMP:  12; 6HR MAX TEMP:  20;

FLORA          PTCLDY    19  19  97 CALM      30.45S
6HR MIN TEMP:  15; 6HR MAX TEMP:  24;

GALESBURG      CLOUDY    12   8  82 CALM      30.39F
JACKSONVILLE   CLOUDY    19  12  73 SE5       30.40F WCI  13
6HR MIN TEMP:  10; 6HR MAX TEMP:  19;

LACON          CLOUDY    14   8  76 SW3       30.41F
6HR MIN TEMP:  10; 6HR MAX TEMP:  17;

LAWRENCEVILLE  PTCLDY    18  16  92 S3        30.44F
6HR MIN TEMP:  18; 6HR MAX TEMP:  29;

LITCHFIELD     CLOUDY    19  13  77 SE6       30.43S WCI  11
$$


CITY           SKY/WX    TMP DP  RH WIND       PRES   REMARKS
LINCOLN        MOCLDY    17   8  70 CALM      30.45F
6HR MIN TEMP:  10; 6HR MAX TEMP:  19;

MACOMB         CLOUDY    14   7  75 E5        30.42F WCI   6
MATTOON        PTCLDY    15  10  80 W3        30.42R
6HR MIN TEMP:  14; 6HR MAX TEMP:  22;

MT CARMEL AP   PTCLDY    21  19  93 CALM      30.44F
OLNEY-NOBLE AP PTCLDY    18  18 100 CALM      30.44F
PARIS          CLEAR     15  13  92 SW5       30.42S WCI   8
6HR MIN TEMP:  15; 6HR MAX TEMP:  25;

PEORIA         CLOUDY    15   8  73 CALM      30.41F
6HR MIN TEMP:  13; 6HR MAX TEMP:  17;

PONTIAC        CLOUDY    15  11  82 SW6       30.40S WCI   7
RANTOUL        CLEAR     17  10  75 NW3       30.39S
6HR MIN TEMP:  17; 6HR MAX TEMP:  26;

ROBINSON       PTCLDY    17  15  91 CALM      30.44F
6HR MIN TEMP:  16; 6HR MAX TEMP:  28;

SPRINGFIELD    CLOUDY    18   8  65 N3        30.42F
6HR MIN TEMP:   9; 6HR MAX TEMP:  18;

TAYLORVILLE    CLOUDY    18   5  57 CALM      30.42F
$$

...REGIONAL REPORTS...


CITY           SKY/WX    TMP DP  RH WIND       PRES   REMARKS
CHICAGO O`HARE PTCLDY    18  11  74 CALM      30.36F
KANKAKEE       CLEAR    N/A N/A N/A W3        30.39F
MOLINE         CLOUDY    13   6  74 CALM      30.39F
MOUNT VERNON   MOCLDY    21  16  79 CALM      30.45S
PITTSFIELD     MOCLDY    21  13  71 E7        30.40F WCI  12
QUINCY         MOCLDY    19   9  65 E8        30.38F WCI   9
ROCKFORD       CLOUDY    13   5  70 CALM      30.38F
$$


CITY           SKY/WX    TMP DP  RH WIND       PRES   REMARKS
BURLINGTON     MOCLDY    14   7  73 E7        30.37F WCI   4
CEDAR RAPIDS   CLOUDY    12   6  77 SE8       30.33F WCI   0
DES MOINES     MOCLDY    14   5  67 SE10      30.27F WCI   1
KIRKSVILLE     MOCLDY    20  15  81 SE10      30.32F WCI   9
OTTUMWA        MOCLDY    14   5  67 SE8       30.33F WCI   3
ST LOUIS       CLOUDY    26  19  74 E10       30.42F WCI  16
$$


CITY           SKY/WX    TMP DP  RH WIND       PRES   REMARKS
TERRE HAUTE    CLEAR     17  13  84 CALM      30.41F
EVANSVILLE     CLEAR     22  18  85 CALM      30.46F
INDIANAPOLIS   FLURRIES  24  15  68 NW7       30.37F WCI  16
LAFAYETTE      CLEAR     18  14  84 SW3       30.40F
MADISON        MOCLDY    12   6  77 CALM      30.33F
MILWAUKEE      MOCLDY    14   7  73 W5        30.36F WCI   6
$$




USA.gov is the U.S. government's official web portal to all federal, state and local government web resources and services.